TimeCST,TemperatureF,Dew PointF,Humidity,Sea Level PressureIn,VisibilityMPH,Wind Direction,Wind SpeedMPH,Gust SpeedMPH,PrecipitationIn,Events,Conditions,WindDirDegrees,DateUTC
12:56 AM,21.0,16.0,81,30.26,10.0,NNW,18.4,25.3,N/A,,Overcast,330,2013-01-03 06:56:00
1:25 AM,17.6,12.2,79,30.21,10.0,NNW,18.4,28.8,N/A,,Scattered Clouds,330,2013-01-03 07:25:00
1:56 AM,14.0,7.0,74,30.30,10.0,NNW,16.1,24.2,N/A,,Clear,330,2013-01-03 07:56:00
2:56 AM,10.9,5.0,77,30.32,10.0,NW,12.7,-,N/A,,Clear,320,2013-01-03 08:56:00
3:56 AM,9.0,3.9,80,30.33,10.0,NW,13.8,-,N/A,,Clear,320,2013-01-03 09:56:00
4:44 AM,8.6,5.0,85,30.26,6.0,NNW,12.7,-,0.00,Snow,Light Snow,330,2013-01-03 10:44:00
4:56 AM,9.0,5.0,84,30.34,9.0,NW,11.5,-,0.00,Snow,Light Snow,320,2013-01-03 10:56:00
5:56 AM,8.1,3.9,83,30.36,10.0,NW,13.8,-,0.00,,Clear,320,2013-01-03 11:56:00
6:56 AM,7.0,3.0,84,30.38,10.0,NW,11.5,-,N/A,,Clear,310,2013-01-03 12:56:00
7:56 AM,6.1,1.9,83,30.40,10.0,NW,6.9,-,N/A,,Partly Cloudy,320,2013-01-03 13:56:00
8:01 AM,5.0,1.4,85,30.31,10.0,NNW,6.9,-,N/A,,Scattered Clouds,330,2013-01-03 14:01:00
8:12 AM,6.8,3.2,85,30.31,10.0,NW,5.8,-,N/A,,Mostly Cloudy,320,2013-01-03 14:12:00
8:19 AM,8.6,3.2,79,30.31,10.0,NNW,8.1,-,0.00,Snow,Light Snow,330,2013-01-03 14:19:00
8:56 AM,10.9,7.0,84,30.40,6.0,WNW,4.6,-,0.00,Snow,Light Snow,300,2013-01-03 14:56:00
9:20 AM,12.2,8.6,85,30.32,2.5,NW,4.6,-,0.00,Snow,Light Snow,320,2013-01-03 15:20:00
9:56 AM,14.0,10.0,84,30.40,4.0,West,4.6,-,0.00,Snow,Light Snow,280,2013-01-03 15:56:00
10:25 AM,15.8,10.4,79,30.33,6.0,NNW,9.2,-,0.00,Snow,Light Snow,330,2013-01-03 16:25:00
10:56 AM,16.0,10.9,81,30.41,8.0,NNW,11.5,-,0.00,Snow,Light Snow,330,2013-01-03 16:56:00
11:05 AM,17.6,12.2,79,30.33,8.0,NNW,11.5,-,0.00,Snow,Light Snow,330,2013-01-03 17:05:00
11:56 AM,18.0,12.9,81,30.39,9.0,West,6.9,-,0.00,Snow,Light Snow,280,2013-01-03 17:56:00
12:56 PM,18.0,12.0,78,30.36,9.0,WSW,8.1,-,0.00,,Overcast,240,2013-01-03 18:56:00
1:56 PM,19.0,14.0,81,30.35,10.0,WSW,8.1,-,N/A,,Overcast,240,2013-01-03 19:56:00
2:56 PM,21.0,16.0,81,30.35,10.0,Variable,5.8,-,N/A,,Overcast,0,2013-01-03 20:56:00
3:15 PM,21.2,15.8,80,30.26,10.0,WSW,6.9,-,N/A,,Scattered Clouds,250,2013-01-03 21:15:00
3:56 PM,21.0,16.0,81,30.35,10.0,WSW,5.8,-,N/A,,Partly Cloudy,250,2013-01-03 21:56:00
4:56 PM,19.9,16.0,85,30.34,10.0,SW,4.6,-,N/A,,Clear,220,2013-01-03 22:56:00
5:56 PM,18.0,14.0,84,30.34,10.0,SW,5.8,-,N/A,,Clear,220,2013-01-03 23:56:00
6:56 PM,18.0,12.9,81,30.34,10.0,SW,4.6,-,N/A,,Clear,220,2013-01-04 00:56:00
7:56 PM,18.0,14.0,84,30.32,10.0,SW,5.8,-,N/A,,Clear,220,2013-01-04 01:56:00
8:56 PM,19.0,14.0,81,30.28,10.0,SW,6.9,-,N/A,,Clear,220,2013-01-04 02:56:00
9:56 PM,19.0,14.0,81,30.26,10.0,SW,9.2,-,N/A,,Clear,220,2013-01-04 03:56:00
10:56 PM,18.0,12.9,81,30.25,10.0,SW,8.1,-,N/A,,Clear,220,2013-01-04 04:56:00
11:56 PM,18.0,12.0,78,30.23,10.0,SW,6.9,-,N/A,,Clear,220,2013-01-04 05:56:00